Total_Precipitation_Accumulation
0.03 0.02 0.02 0.02 0.03 0.03 0.02 0.02 0.01 0.01 0.02 0.02 0.02 0.02 0.03 0.02 0.03 0.04 0.05 0.06 0.15 0.14 0.13 0.13 0.18 0.14 0.05 0.06 0.04 0.05 0.06 0.07 0.07 0.07 0.09 0.11 0.13 0.14 0.17 0.21 0.23 0.24
0.02 0.02 0.02 0.02 0.02 0.01 0.01 0.01 0.01 0.03 0.04 0.03 0.02 0.02 0.02 0.02 0.02 0.03 0.03 0.03 0.04 0.04 0.04 0.10 0.06 0.14 0.10 0.11 0.09 0.12 0.11 0.09 0.10 0.08 0.08 0.10 0.12 0.12 0.12 0.14 0.18 0.21
0.04 0.01 0.01 0.01 0.02 0.03 0.02 0.01 0.02 0.02 0.02 0.02 0.02 0.02 0.03 0.03 0.03 0.03 0.03 0.04 0.05 0.09 0.05 0.11 0.10 0.11 0.15 0.12 0.06 0.09 0.10 0.11 0.13 0.12 0.14 0.12 0.11 0.12 0.13 0.13 0.14 0.18
0.02 0.01 0.02 0.02 0.02 0.03 0.02 0.02 0.02 0.03 0.01 0.02 0.02 0.02 0.03 0.04 0.04 0.05 0.05 0.06 0.06 0.06 0.08 0.07 0.08 0.08 0.10 0.06 0.17 0.12 0.13 0.10 0.12 0.13 0.13 0.18 0.16 0.14 0.13 0.13 0.15 0.17
0.01 0.02 0.02 0.02 0.02 0.02 0.02 0.02 0.02 0.01 0.02 0.02 0.03 0.02 0.03 0.03 0.04 0.06 0.06 0.06 0.06 0.08 0.16 0.09 0.08 0.08 0.06 0.06 0.07 0.11 0.07 0.07 0.06 0.07 0.10 0.14 0.15 0.15 0.15 0.16 0.18 0.20
0.01 0.02 0.02 0.02 0.01 0.01 0.03 0.02 0.02 0.05 0.08 0.04 0.04 0.02 0.04 0.04 0.05 0.05 0.06 0.07 0.06 0.07 0.08 0.24 0.12 0.10 0.14 0.07 0.06 0.05 0.07 0.05 0.07 0.06 0.06 0.07 0.08 0.10 0.13 0.16 0.20 0.20
0.01 0.01 0.01 0.02 0.02 0.03 0.03 0.04 0.06 0.09 0.05 0.06 0.12 0.10 0.05 0.05 0.04 0.05 0.06 0.07 0.08 0.08 0.07 0.12 0.08 0.10 0.06 0.07 0.09 0.07 0.08 0.07 0.07 0.07 0.06 0.06 0.07 0.07 0.08 0.13 0.15 0.15
0.01 0.01 0.02 0.02 0.03 0.03 0.03 0.04 0.12 0.09 0.11 0.07 0.11 0.04 0.09 0.05 0.06 0.07 0.07 0.08 0.09 0.09 0.08 0.08 0.13 0.10 0.07 0.08 0.07 0.06 0.07 0.08 0.09 0.12 0.07 0.08 0.06 0.06 0.06 0.07 0.12 0.14
0.02 0.02 0.02 0.02 0.02 0.02 0.07 0.04 0.07 0.09 0.09 0.08 0.06 0.06 0.07 0.09 0.09 0.11 0.11 0.11 0.11 0.09 0.09 0.11 0.12 0.13 0.10 0.13 0.14 0.13 0.10 0.08 0.07 0.07 0.06 0.06 0.06 0.05 0.05 0.06 0.08 0.11
0.03 0.02 0.02 0.03 0.07 0.05 0.04 0.04 0.05 0.06 0.06 0.06 0.08 0.09 0.09 0.09 0.09 0.09 0.10 0.10 0.11 0.11 0.15 0.10 0.11 0.09 0.11 0.14 0.15 0.12 0.14 0.16 0.12 0.09 0.08 0.09 0.10 0.07 0.06 0.06 0.07 0.10
0.03 0.03 0.03 0.03 0.02 0.03 0.02 0.03 0.09 0.05 0.05 0.11 0.09 0.11 0.17 0.11 0.10 0.09 0.10 0.11 0.11 0.09 0.08 0.07 0.08 0.07 0.08 0.08 0.08 0.09 0.11 0.12 0.12 0.12 0.12 0.12 0.11 0.11 0.12 0.11 0.10 0.08
0.02 0.02 0.02 0.02 0.02 0.06 0.03 0.04 0.05 0.06 0.07 0.11 0.17 0.08 0.13 0.12 0.13 0.12 0.13 0.11 0.10 0.10 0.09 0.12 0.09 0.09 0.09 0.11 0.08 0.07 0.07 0.08 0.09 0.09 0.09 0.11 0.12 0.13 0.12 0.12 0.13 0.12
0.01 0.02 0.02 0.02 0.03 0.04 0.05 0.07 0.07 0.07 0.08 0.10 0.11 0.13 0.16 0.16 0.17 0.14 0.14 0.13 0.13 0.12 0.12 0.11 0.11 0.10 0.09 0.09 0.08 0.08 0.09 0.09 0.09 0.09 0.08 0.09 0.09 0.10 0.10 0.10 0.12 0.12
0.02 0.03 0.03 0.04 0.06 0.14 0.07 0.07 0.08 0.09 0.11 0.11 0.14 0.15 0.20 0.20 0.21 0.17 0.16 0.15 0.16 0.15 0.14 0.12 0.12 0.12 0.10 0.10 0.09 0.09 0.09 0.11 0.09 0.12 0.13 0.12 0.10 0.09 0.09 0.10 0.11 0.12
0.02 0.03 0.05 0.07 0.06 0.08 0.08 0.08 0.10 0.14 0.12 0.15 0.19 0.23 0.20 0.21 0.22 0.21 0.20 0.21 0.17 0.17 0.18 0.15 0.16 0.14 0.12 0.13 0.13 0.12 0.13 0.16 0.15 0.16 0.15 0.14 0.13 0.13 0.12 0.11 0.11 0.11
0.04 0.06 0.08 0.10 0.09 0.10 0.10 0.09 0.11 0.13 0.18 0.17 0.23 0.24 0.24 0.20 0.21 0.22 0.24 0.33 0.22 0.20 0.19 0.21 0.19 0.16 0.14 0.15 0.18 0.22 0.25 0.25 0.25 0.23 0.21 0.20 0.19 0.16 0.13 0.11 0.11 0.10
0.06 0.08 0.09 0.09 0.11 0.10 0.11 0.13 0.14 0.16 0.19 0.23 0.23 0.24 0.26 0.30 0.27 0.30 0.29 0.29 0.28 0.28 0.30 0.27 0.25 0.19 0.17 0.21 0.30 0.41 0.41 0.41 0.37 0.31 0.25 0.23 0.20 0.18 0.16 0.13 0.11 0.10
0.08 0.09 0.10 0.11 0.12 0.13 0.15 0.18 0.18 0.20 0.21 0.22 0.29 0.27 0.31 0.31 0.37 0.38 0.31 0.28 0.29 0.29 0.30 0.28 0.29 0.22 0.25 0.33 0.41 0.52 0.65 0.56 0.51 0.41 0.32 0.26 0.22 0.19 0.16 0.15 0.14 0.13
0.09 0.11 0.13 0.14 0.15 0.22 0.17 0.20 0.22 0.23 0.24 0.28 0.31 0.32 0.36 0.39 0.41 0.35 0.34 0.34 0.33 0.37 0.32 0.30 0.29 0.25 0.31 0.42 0.47 0.63 0.76 0.79 0.69 0.53 0.39 0.29 0.24 0.21 0.20 0.18 0.17 0.19
0.12 0.15 0.17 0.18 0.18 0.17 0.19 0.23 0.26 0.28 0.29 0.36 0.35 0.35 0.39 0.41 0.39 0.40 0.39 0.43 0.43 0.43 0.40 0.38 0.35 0.32 0.38 0.53 0.69 0.79 0.92 0.97 0.74 0.61 0.48 0.38 0.31 0.27 0.23 0.21 0.20 0.22
0.16 0.22 0.24 0.20 0.19 0.19 0.21 0.24 0.27 0.27 0.28 0.31 0.36 0.40 0.43 0.45 0.45 0.45 0.46 0.48 0.48 0.56 0.52 0.50 0.42 0.40 0.53 0.73 0.75 0.87 0.90 1.19 0.90 0.84 0.70 0.53 0.40 0.34 0.31 0.28 0.24 0.23
0.19 0.21 0.22 0.24 0.21 0.21 0.26 0.28 0.28 0.29 0.35 0.34 0.39 0.41 0.41 0.42 0.37 0.38 0.38 0.38 0.37 0.40 0.45 0.44 0.34 0.39 0.58 0.74 0.80 0.95 1.14 1.12 1.06 0.80 0.64 0.55 0.45 0.39 0.34 0.31 0.27 0.27
0.20 0.22 0.23 0.22 0.22 0.25 0.26 0.28 0.30 0.29 0.30 0.32 0.37 0.33 0.30 0.28 0.29 0.27 0.29 0.33 0.33 0.34 0.35 0.32 0.30 0.34 0.48 0.67 0.74 0.88 1.32 1.43 1.20 0.82 0.62 0.50 0.42 0.38 0.35 0.33 0.29 0.27
0.20 0.23 0.26 0.23 0.24 0.26 0.24 0.23 0.23 0.25 0.28 0.28 0.34 0.32 0.31 0.30 0.29 0.29 0.29 0.30 0.33 0.33 0.33 0.35 0.31 0.30 0.39 0.52 0.64 0.84 0.98 0.98 0.95 0.86 0.61 0.49 0.44 0.38 0.36 0.36 0.30 0.33
0.24 0.22 0.23 0.23 0.24 0.22 0.21 0.22 0.22 0.24 0.27 0.28 0.30 0.30 0.29 0.27 0.28 0.30 0.28 0.29 0.30 0.31 0.33 0.37 0.36 0.32 0.35 0.49 0.70 0.89 0.96 0.96 0.90 0.81 0.71 0.60 0.57 0.52 0.44 0.35 0.29 0.26
0.21 0.20 0.20 0.23 0.23 0.21 0.19 0.21 0.22 0.25 0.23 0.25 0.26 0.25 0.26 0.25 0.25 0.25 0.26 0.28 0.31 0.37 0.38 0.38 0.37 0.36 0.39 0.51 0.67 0.69 0.84 0.81 0.66 0.64 0.68 0.65 0.61 0.53 0.54 0.47 0.37 0.34